Tracking 18980 objects as of 19-Feb-2018
HD Live streaming from Space Station
objects crossing your sky now

FENGYUN 1C DEB

Track FENGYUN 1C DEB now!
10-day predictions


NORAD ID: 30820
Int'l Code: 1999-025AVE
Perigee: 839.8 km
Apogee: 928.2 km
Inclination: 98.6 °
Period: 102.5 minutes
Semi major axis: 7254 km
RCS: 0.0172 m2 (small)
Launch date: May 10, 1999
Source: People's Republic of China (PRC)
Launch site: Taiyaun Space Center, China (TSC)

Note: This is SATELLITE DEBRIS
aabbcc
Your satellite tracking list
Your tracking list is empty




NASA's NSSDC Master Catalog

Two Line Element Set (TLE):
1 30820U 99025AVE 18049.03045237 +.00000440 +00000-0 +29449-3 0  9993
2 30820 098.5658 223.7002 0060935 002.1233 124.9340 14.04916134562151
Source of the keplerian elements: AFSPC